Find Starlink 3323

NORAD ID: 50804 Int'l Des: 2022-001 Owner: SPXS Country: US Constellation: starlink operational
LEOCIRCULAR

現在のビュー

3D地球を読み込み中...

About Starlink 3323

Starlink 3323 (NORAD 50804) is a starlink constellation satellite (v1.5) launched Jan 6, 2022 by SPXS of US. It operates in LEO, CIRCULAR orbit with a mass of 297.00 kg.

次回通過

Passes for default location (London). Set your location on the main map for personalized predictions.

高度履歴

Loading altitude history...

軌道要素

1 50804U 22001B 26262.28370964 -.00007055 00000-0 -19767-3 0 9991
2 50804 53.1614 359.3103 0001208 88.9458 271.1683 15.34428351259916
Epoch: Sep 19, 2026 • Age: 26 hours

現在のステータス

高度 463.3 km
遠地点 / 近地点 N/A
速度 7.64 km/s
衛星直下点 25.75°N, 27.11°E
打ち上げ日 Jan 6, 2022
運用期間 4.7 years
タイプ internet

技術仕様

分類 Payload
質量 297.00 kg
乾燥質量 275.00 kg
長さ 0.20 m
スパン 9.00 m
形状 ? Box + pan
製造者 SPXS
バスタイプ Starlink
フェーズステータス In Orbit
所有者/国 SPXS/US

Most Searched